Terug naar catalogus

THORAD AGENA D DEB

ActiefVLEO
NORAD 4938·DEBRIS·🇺🇸 United States

Gelanceerd Sep 30, 1969 vanaf Vandenberg Space Force Base

Loading…

Volgende Passages (komende 24 uur)

TLE

VersSource: Space-Track

Epoch: Sep 14, 2026, 04:02 UTC

1 04938U 69082HJ  26257.16857557  .00006093  00000-0  55760-3 0  9999
2 04938  70.1201 173.1600 0012940 283.4260  76.5456 14.95386454986988

Volg THORAD AGENA D DEB in realtime met AllMySat

Download on the App Store